Location: Hohe Wand Waldeggerhaus
(47.8500°N, 16.0440°E)
Time: 16:13:17
(UTC+01:00)

Envisat - Visible Passes

Search period start: 30 January 2023 00:00
Search period end: 09 February 2023 00:00
Orbit: 763 x 765 km, 98.2° (Epoch: 30 January)

Date Brightness Start Highest point End Pass type
(mag) Time Alt. Az. Time Alt. Az. Time Alt. Az.
30 Jan 4.8 04:13:36 10° NNE 04:15:26 23° NNE 04:15:26 23° NNE visible
30 Jan 4.8 05:54:05 10° NNW 05:55:37 14° NW 05:55:37 14° NW visible
31 Jan 5.3 03:36:45 10° NNE 03:38:05 18° NNE 03:38:05 18° NNE visible
31 Jan 4.5 05:16:05 10° N 05:18:17 21° NNW 05:18:17 21° NNW visible
01 Feb 5.9 03:00:26 10° NE 03:00:45 11° NE 03:00:45 11° NE visible
01 Feb 4.4 04:38:38 10° N 04:40:56 26° N 04:40:56 26° N visible
02 Feb 4.8 04:01:32 10° NNE 04:03:36 25° NNE 04:03:36 25° NNE visible
02 Feb 4.6 05:41:36 10° NNW 05:43:47 17° NW 05:43:47 17° NW visible
03 Feb 5.4 03:24:49 10° NNE 03:26:16 18° NE 03:26:16 18° NE visible
03 Feb 4.2 05:03:50 10° N 05:06:27 26° NNW 05:06:27 26° NNW visible
04 Feb 6.0 02:48:48 10° NE 02:48:56 10° NE 02:48:56 10° NE visible
04 Feb 4.3 04:26:30 10° N 04:29:07 31° N 04:29:07 31° N visible
04 Feb 4.8 06:07:40 10° NNW 06:09:18 12° NW 06:09:18 12° NW visible
05 Feb 4.8 03:49:30 10° NNE 03:51:47 26° NNE 03:51:47 26° NNE visible
05 Feb 4.3 05:29:13 10° N 05:31:59 21° NW 05:31:59 21° NW visible
06 Feb 5.5 03:12:57 10° NE 03:14:28 17° NE 03:14:28 17° NE visible
06 Feb 4.0 04:51:37 10° N 04:54:39 32° NNW 04:54:39 32° NNW visible
07 Feb 4.1 04:14:24 10° NNE 04:17:19 35° NNE 04:17:19 35° NNE visible
07 Feb 4.6 05:54:57 10° NNW 05:57:31 15° NW 05:57:31 15° NW visible
08 Feb 4.8 03:37:31 10° NNE 03:40:00 26° NE 03:40:00 26° NE visible
08 Feb 4.1 05:16:55 10° N 05:20:11 26° NW 05:20:11 26° NW visible
